Вернуться в каталог

CZ-4 DEB

АктивенSSO
NORAD 37623·DEBRIS·🇨🇳 China

Запущен Sep 3, 1990 с Taiyuan Satellite Launch Center

Loading…

Ближайшие Пролёты (ближайшие 24 часа)

TLE

СвежийSource: Space-Track

Эпоха: Sep 14, 2026, 03:36 UTC

1 37623U 90081DK  26257.15065134  .00000333  00000-0  17808-3 0  9992
2 37623  98.7466 243.4309 0020286 245.6085 114.2974 14.19669104679849

Отслеживайте CZ-4 DEB в реальном времени с AllMySat

Download on the App Store